Probability
0 0 0 1 1 1 0 0 0 0 0 0 0 0 0 0 0 0 0 1 1 2 4 7 9 8 8 7 6 6 6 6 4 2 1 0 0 1 2 1 0 0 0 0 0 1 0 1 1
1 0 0 0 1 1 0 0 0 0 0 0 0 0 0 0 0 0 1 2 2 3 3 6 8 9 9 8 7 7 7 6 4 1 0 0 0 1 2 1 0 0 0 0 1 1 1 0 1
1 1 0 0 1 1 0 0 0 1 1 0 0 0 0 0 0 1 2 3 3 3 3 5 8 10 11 10 8 8 7 5 3 2 1 0 0 1 2 1 0 0 0 0 1 2 1 0 0
1 1 1 0 1 1 0 1 1 2 2 1 0 0 0 0 0 1 2 2 1 1 3 6 9 11 12 10 7 6 5 5 4 3 2 1 1 2 2 1 0 0 0 0 1 2 1 0 0
1 1 1 0 0 0 1 2 3 3 2 1 0 0 0 1 1 1 1 2 1 1 3 6 9 12 13 11 7 4 4 4 4 3 2 3 3 3 1 0 0 0 0 1 2 2 1 0 0
2 1 0 0 0 0 1 2 3 2 1 0 0 0 0 1 2 1 1 1 0 1 3 6 8 11 13 12 9 6 5 4 3 2 2 4 5 4 2 0 0 0 1 2 2 1 0 0 0
2 1 0 0 0 0 1 2 1 1 0 0 0 0 0 1 2 2 1 0 1 2 4 6 7 9 13 13 11 9 8 6 4 3 3 4 5 5 3 1 0 0 2 3 2 1 0 0 0
2 1 1 1 1 1 2 3 2 1 0 1 1 0 1 2 4 4 1 1 2 4 6 7 6 7 9 10 10 9 8 7 5 3 3 3 3 3 2 0 0 0 2 2 1 0 0 0 0
3 3 3 2 1 1 3 3 3 3 2 2 2 1 2 5 8 7 3 1 3 5 6 6 5 4 5 6 6 6 6 5 4 2 1 1 1 1 0 0 0 0 1 2 1 0 0 0 0
5 5 4 2 1 1 2 2 3 4 3 3 4 4 6 8 11 11 7 3 3 5 6 6 5 4 4 4 3 2 2 2 2 1 1 0 0 0 0 0 0 0 1 1 0 0 0 0 0
5 4 3 1 0 2 2 1 2 4 3 3 6 8 8 10 13 14 11 6 3 4 5 5 4 4 4 4 3 2 1 1 1 1 1 1 1 1 0 0 0 0 0 0 0 0 0 0 0
3 2 1 0 0 1 1 1 1 2 3 5 8 9 8 8 10 14 13 9 5 5 5 4 3 2 2 4 4 3 1 0 0 0 1 1 2 1 0 0 0 0 0 0 0 0 0 0 0
1 0 0 0 0 0 0 0 0 2 5 8 9 9 6 5 7 10 11 11 10 8 7 5 3 1 1 3 4 3 1 0 0 0 0 1 1 0 0 0 0 0 0 0 0 0 0 0 0
0 0 0 0 0 0 0 0 0 2 6 9 9 7 5 4 5 8 11 12 13 11 10 8 5 3 3 3 3 2 1 0 0 0 0 0 0 0 0 0 0 0 0 0 0 0 0 0 0
0 0 0 0 0 0 0 0 1 4 6 7 7 6 5 6 7 9 12 14 13 13 12 10 8 7 5 4 3 3 2 2 2 1 0 0 0 0 0 0 0 0 0 0 0 0 0 0 0
0 0 0 0 0 0 0 1 3 6 6 5 5 5 5 8 9 10 13 15 14 14 13 12 11 10 7 4 3 3 3 3 3 2 1 1 1 0 0 0 0 0 0 0 0 0 0 0 0
0 0 0 0 0 0 0 1 4 7 7 6 5 5 5 8 11 12 13 14 15 16 17 16 14 12 9 5 3 3 3 3 3 2 1 1 1 0 0 0 0 0 0 0 0 0 0 0 0
0 0 0 0 0 0 0 1 3 6 8 8 7 7 8 11 13 13 13 13 15 18 19 18 16 14 10 5 3 3 3 3 3 3 2 2 1 0 0 0 0 0 0 0 0 0 0 0 0
0 0 0 0 0 0 0 0 1 4 8 9 9 10 12 15 16 15 14 15 17 19 19 18 16 13 9 5 3 3 3 3 3 3 4 3 2 0 0 0 0 0 0 0 0 0 0 0 0
0 0 0 0 0 0 0 0 1 3 5 7 7 10 15 18 18 18 18 18 19 20 21 19 16 12 9 6 4 4 4 3 3 4 5 4 2 1 0 0 0 0 0 0 0 0 0 0 0
0 0 0 0 0 0 0 0 0 1 3 5 5 8 14 19 20 21 21 21 21 23 23 21 17 13 10 8 7 6 6 5 4 6 6 5 3 3 2 1 0 0 0 0 0 0 0 0 0
0 0 0 0 0 0 0 0 0 1 3 4 6 9 13 18 20 20 22 22 22 24 25 21 15 12 10 9 9 9 8 6 5 7 8 6 5 6 5 2 1 1 0 0 0 0 0 0 0
0 0 0 0 0 0 0 0 0 1 3 5 8 10 13 17 19 20 22 23 22 24 25 20 14 9 9 10 10 9 8 6 5 6 8 7 6 6 5 4 3 2 1 0 0 0 0 0 0
0 0 0 0 0 0 0 0 0 0 2 6 10 12 14 16 18 18 21 21 21 24 24 21 15 10 9 9 9 8 7 5 4 5 6 5 3 2 2 3 3 2 1 0 0 0 0 0 1
0 0 0 0 0 0 0 0 0 0 1 6 12 14 14 15 16 16 18 19 20 23 25 23 17 12 10 8 7 7 7 5 4 5 5 2 0 0 0 1 1 2 2 2 1 1 2 2 2
0 0 0 0 0 0 0 0 0 1 3 7 11 13 13 12 12 14 16 15 17 21 25 25 20 14 11 9 8 9 9 8 6 5 4 3 1 1 1 1 1 2 2 3 2 2 3 3 4
0 0 0 0 0 0 0 0 1 3 6 9 11 12 11 9 10 13 14 14 15 19 25 28 25 18 12 10 10 11 11 11 9 6 5 4 3 2 2 2 2 2 2 2 2 3 4 4 3
0 0 0 0 0 0 0 0 1 3 7 10 12 12 10 10 14 16 14 13 14 17 24 28 27 21 14 11 10 11 11 11 10 7 5 3 2 2 2 2 1 1 1 1 3 4 5 4 4
0 0 0 0 0 0 0 0 1 4 7 10 11 11 11 15 22 21 16 14 15 17 21 24 23 19 14 12 11 10 10 9 9 7 4 1 1 1 1 1 1 0 1 3 6 7 7 6 6
0 0 0 0 0 0 0 0 1 5 9 10 11 10 11 17 24 24 18 14 16 17 18 19 18 17 15 14 12 10 9 8 7 5 2 0 0 0 0 1 1 1 2 5 8 9 9 7 6
Wind_Speed
9 6 3 1 1 2 1 0 2 3 4 5 8 8 8 5 4 5 3 9 11 10 8 11 13 14 14 14 14 13 13 13 13 13 12 12 12 12 12 12 12 11 11 10 10 9 9 9 9
6 5 2 0 2 2 1 1 3 3 5 7 9 8 8 6 6 8 5 9 11 10 8 10 13 14 14 13 13 13 13 13 13 12 12 12 12 12 12 12 11 11 10 10 10 9 8 8 8
5 4 1 1 0 2 2 2 4 5 5 5 5 5 5 5 7 6 7 12 11 9 8 10 15 14 14 13 13 13 13 13 13 12 12 12 12 11 11 11 10 10 10 9 9 8 8 7 7
2 1 1 2 0 2 4 3 5 6 5 6 6 5 4 4 5 9 13 13 12 9 8 11 15 15 14 12 12 14 14 13 13 12 12 11 11 11 11 10 10 9 9 9 8 8 7 6 6
1 1 2 1 1 1 3 5 6 6 4 6 8 6 4 4 12 15 14 14 13 9 8 10 14 14 14 13 13 14 14 13 13 12 11 11 10 10 10 9 9 9 8 8 7 7 6 6 5
1 2 2 0 1 1 2 5 6 9 10 8 8 6 3 7 13 13 14 12 12 11 9 9 14 14 13 13 13 14 14 13 12 11 10 10 9 9 9 8 8 8 8 7 6 6 5 4 4
2 1 1 2 1 1 3 5 6 8 8 6 6 6 4 7 10 12 12 11 10 10 8 6 7 10 12 13 13 13 13 12 11 11 10 9 8 8 8 8 8 8 7 7 6 5 4 4 3
3 1 0 1 2 1 2 3 5 7 6 8 6 7 6 9 11 11 11 10 9 8 7 7 5 5 5 7 12 12 12 11 10 10 9 8 8 8 8 7 7 8 8 7 6 5 4 3 3
2 2 2 3 3 2 2 5 3 5 8 4 4 6 10 14 13 12 10 8 8 9 6 7 6 5 5 5 8 9 10 9 9 7 8 6 3 3 3 5 7 8 7 7 6 5 4 3 2
3 2 5 4 4 3 3 5 3 5 7 6 8 9 13 13 13 13 12 10 10 9 8 6 6 6 5 5 5 3 4 4 3 3 3 2 2 2 3 4 6 6 6 5 5 5 4 2 1
5 5 5 3 3 4 3 2 2 7 6 10 14 14 13 11 10 11 11 11 10 10 9 7 7 6 5 4 4 2 2 2 3 3 3 2 2 1 1 1 2 2 3 2 2 2 1 1 1
2 5 4 3 2 4 4 3 3 4 7 12 15 15 13 11 10 10 11 10 9 9 9 8 7 6 5 5 4 3 3 2 3 3 4 3 2 2 1 1 1 1 1 1 1 1 1 1 1
2 3 2 2 3 4 5 4 5 5 8 12 14 14 13 12 10 9 9 9 10 9 8 8 7 7 6 5 4 4 3 3 3 3 3 4 3 2 2 1 1 1 1 1 1 1 1 1 1
2 2 2 1 2 4 5 3 5 7 11 12 14 13 12 13 12 10 10 9 9 9 9 7 7 6 6 4 3 3 3 3 3 3 4 4 3 3 2 1 1 1 1 1 2 2 2 1 1
2 2 3 2 2 3 5 2 4 9 11 12 11 11 11 11 11 12 11 10 10 9 9 8 7 6 6 5 4 4 3 3 3 3 3 4 3 3 3 2 1 1 1 1 1 1 1 1 1
3 3 2 4 1 3 5 3 5 8 11 11 10 10 10 9 10 11 11 9 9 9 8 8 8 7 6 5 4 3 3 3 3 3 3 3 3 3 3 2 2 1 1 1 1 1 1 0 0
3 2 3 5 2 2 4 4 6 7 10 10 10 9 10 9 8 9 10 10 10 10 9 8 7 7 6 5 4 3 3 3 3 2 3 3 3 3 3 2 1 1 1 1 1 1 1 1 0
4 3 4 5 3 1 2 4 5 6 10 11 10 9 10 11 10 10 10 10 9 9 8 8 7 6 6 4 3 3 3 2 2 2 3 3 3 3 3 2 1 1 1 0 1 1 0 1 1
5 4 5 7 4 1 2 4 5 6 7 8 8 10 10 10 9 10 10 11 10 8 8 8 7 6 5 4 3 3 2 2 2 2 3 3 3 3 3 2 1 2 1 1 1 1 1 0 1
7 6 6 5 4 3 2 3 4 6 10 10 11 11 11 9 9 10 10 10 10 10 9 8 8 7 5 4 3 3 3 2 2 2 2 3 3 3 3 3 2 2 1 1 1 1 1 0 1
6 7 7 6 2 1 2 3 4 4 4 6 8 9 11 13 13 12 11 10 10 11 10 9 8 7 6 5 3 3 2 1 1 1 1 2 3 3 3 3 2 2 2 1 1 1 2 1 1
6 7 6 7 3 2 3 2 6 4 3 6 7 9 11 11 11 11 11 11 11 11 10 8 8 7 6 6 5 5 4 3 3 2 2 2 2 3 3 2 2 2 2 2 1 2 2 2 1
7 6 3 4 3 1 1 2 6 2 4 6 7 9 10 11 13 13 13 12 11 10 10 8 7 7 6 6 6 6 4 3 2 2 3 2 1 2 2 3 2 2 2 2 2 1 1 2 2
3 2 3 3 4 1 4 3 6 4 7 6 7 8 9 9 10 11 10 9 8 8 8 8 7 6 6 7 6 6 6 5 4 3 3 2 1 1 2 2 2 2 2 2 1 1 1 1 1
2 5 4 5 4 4 3 2 7 7 5 7 9 8 8 8 8 9 9 9 10 10 9 8 8 7 6 6 6 6 6 6 5 5 4 3 2 1 2 2 2 2 2 2 2 1 1 1 2
2 7 7 4 4 4 3 3 6 5 3 2 5 7 8 7 7 9 11 11 9 10 10 9 9 8 7 7 6 5 6 4 3 4 4 4 3 3 3 2 2 2 2 2 2 1 1 1 2
3 2 7 7 2 0 3 4 5 3 2 4 4 6 7 7 7 8 9 9 9 9 10 10 9 8 8 7 6 5 5 5 4 4 4 3 3 3 3 3 2 2 2 2 2 1 1 1 1
6 5 5 5 3 2 4 3 4 3 2 2 4 7 7 7 7 8 8 9 9 10 9 9 9 9 8 7 7 6 5 5 5 4 4 3 3 2 3 3 2 2 2 2 2 2 1 1 1
1 2 4 4 5 6 3 6 6 8 6 5 5 7 9 9 8 8 7 8 8 8 8 8 8 7 7 7 6 6 5 5 4 4 4 4 3 3 3 3 3 3 2 2 2 2 2 2 1
6 6 7 5 4 5 4 7 5 4 5 5 5 4 6 8 7 7 7 7 6 7 7 7 7 8 7 7 6 6 5 5 5 4 4 4 4 3 3 3 3 3 3 3 3 3 2 2 2
Wind_Direction
172 165 167 200 25 41 42 264 113 63 54 59 73 80 84 74 102 133 148 144 140 143 147 141 137 134 133 133 133 133 131 130 129 127 126 127 128 130 132 132 133 133 134 135 134 134 135 138 143
166 171 192 251 66 63 347 138 102 99 125 110 83 81 79 74 89 116 131 146 142 144 144 142 141 138 137 136 137 139 137 136 133 132 132 131 131 133 133 135 135 137 137 138 138 138 139 143 148
181 198 205 58 106 160 183 144 120 103 101 94 88 67 76 105 116 132 146 142 136 135 139 144 142 141 141 141 143 143 141 139 137 136 136 136 136 137 138 139 140 141 142 143 143 143 145 148 152
176 175 7 55 115 197 178 177 131 108 82 78 94 69 64 102 124 133 136 137 134 136 139 143 142 141 141 139 142 144 140 139 137 138 139 139 140 143 144 146 146 146 147 149 149 151 155 156 159
156 81 31 0 243 189 171 151 137 112 89 83 89 92 77 75 115 129 136 139 138 139 139 144 143 142 141 139 137 142 140 139 139 140 142 143 144 146 150 151 150 151 153 154 155 157 160 165 169
56 73 70 314 345 13 121 125 104 102 111 107 102 106 103 122 128 138 140 142 142 142 142 145 148 145 143 139 135 138 140 141 142 143 145 147 150 153 156 159 158 157 157 158 157 156 160 168 174
142 106 190 169 104 65 114 108 112 126 130 131 128 109 127 145 146 144 139 140 138 139 140 142 148 148 147 143 140 142 144 144 145 146 148 151 155 161 165 167 166 166 163 163 164 162 161 166 178
171 107 269 160 140 164 126 107 116 125 117 126 130 133 159 165 147 136 134 133 134 137 141 142 144 144 145 145 146 148 149 148 148 149 150 152 156 164 169 169 172 171 170 171 170 169 170 174 185
160 82 214 196 163 181 129 102 95 98 110 115 108 131 150 148 139 132 133 131 139 144 148 148 147 145 146 147 147 150 153 151 151 152 153 149 146 153 160 172 178 178 177 175 177 183 188 194 204
151 180 226 205 180 170 154 124 126 105 105 103 104 117 135 139 140 142 147 150 151 153 161 157 155 157 158 158 142 143 147 140 139 142 147 139 136 154 160 174 184 186 186 186 191 199 206 210 220
170 201 235 224 177 144 129 112 106 123 129 147 145 146 144 139 143 147 151 155 157 156 156 158 161 163 162 150 146 147 139 136 144 154 158 156 142 142 145 168 184 192 193 196 198 211 216 204 200
179 235 232 220 168 138 145 144 110 135 163 157 153 152 149 147 155 157 154 154 151 150 154 153 155 156 157 150 150 152 148 149 150 161 165 150 134 135 149 181 180 168 172 176 189 193 202 222 212
210 253 248 224 184 151 137 145 134 142 142 144 145 148 152 156 158 157 152 150 149 150 153 156 153 155 155 147 152 148 151 151 150 145 150 143 142 156 157 178 169 165 167 173 173 181 178 214 220
261 293 294 247 180 147 138 145 121 157 147 144 151 157 162 162 157 152 151 150 152 153 155 154 149 151 145 142 140 141 147 147 144 153 160 154 155 159 148 151 161 190 190 184 180 183 187 202 186
330 335 319 240 178 165 122 85 168 167 152 150 155 161 161 162 160 160 162 158 156 154 152 150 148 144 138 137 143 141 147 144 145 152 154 151 153 150 146 147 148 212 205 167 147 145 151 152 151
4 18 327 281 193 171 120 196 217 175 157 155 159 161 160 166 165 163 160 154 153 151 147 153 150 141 136 133 135 136 142 142 147 151 146 141 147 147 143 147 158 174 155 125 127 129 107 86 137
5 327 288 300 271 174 129 200 211 180 162 162 163 165 164 162 164 161 158 154 152 152 149 147 143 143 141 135 129 129 129 134 143 143 142 145 150 148 143 151 162 139 120 110 144 131 145 131 102
237 251 290 295 282 135 162 214 204 184 167 170 168 167 168 168 171 165 159 155 150 147 147 148 146 148 144 132 116 106 105 116 131 140 148 149 153 144 134 135 137 130 116 101 105 138 127 160 222
220 231 266 273 257 158 232 232 203 184 164 172 175 173 171 175 168 160 158 155 150 149 149 153 153 158 150 142 141 139 147 146 148 159 155 153 154 142 133 142 131 129 135 175 152 132 91 25 79
221 238 252 269 255 158 194 250 233 184 181 182 178 178 172 166 162 162 160 159 159 162 162 159 159 162 163 161 157 153 154 162 164 159 153 156 152 150 153 148 144 144 139 131 120 117 118 240 116
227 215 222 225 280 58 119 313 268 239 194 187 181 175 170 172 171 168 166 169 167 170 170 168 168 164 166 160 138 121 94 71 88 132 160 172 155 151 152 152 147 145 144 162 180 150 149 200 287
252 243 218 198 175 237 152 219 272 231 212 200 189 177 178 175 170 170 170 173 177 176 170 163 168 168 169 160 154 155 159 173 195 180 177 173 162 159 163 159 156 155 152 167 195 164 163 152 220
230 247 214 195 163 85 341 149 271 246 219 217 192 185 183 174 172 176 178 178 176 172 168 166 164 170 169 163 163 163 169 179 176 161 162 172 183 178 173 169 159 158 163 171 171 158 154 162 168
217 22 10 43 73 34 252 171 264 241 217 208 194 184 179 174 172 176 176 170 170 170 166 165 165 174 172 167 169 170 171 168 164 172 175 176 176 196 191 172 164 167 170 170 177 177 161 173 160
60 82 26 1 11 257 262 173 246 250 232 195 182 182 178 166 161 163 165 171 176 174 170 170 170 178 176 172 174 176 175 173 181 185 183 174 178 194 212 187 177 180 187 183 173 166 182 179 169
220 138 156 193 222 276 328 234 260 279 263 153 159 162 159 169 169 167 169 173 177 178 173 173 177 181 179 179 180 177 176 176 183 186 179 180 185 193 195 188 184 190 189 186 173 171 199 185 191
183 187 171 141 161 230 277 285 316 341 69 104 126 137 156 169 168 167 165 166 174 181 182 178 175 178 182 183 179 179 179 174 177 179 175 178 182 190 188 189 191 195 186 184 171 173 197 177 191
164 160 96 112 148 228 285 257 229 249 210 152 148 159 161 157 153 155 159 171 185 181 180 176 174 178 180 180 183 183 180 178 177 171 175 178 186 192 180 183 186 187 193 184 168 172 187 160 190
179 135 126 133 154 158 223 266 227 200 194 183 188 176 165 160 159 156 160 169 178 174 175 175 174 175 180 181 180 179 178 177 172 172 179 180 179 183 184 186 183 190 202 189 172 189 176 165 196
176 178 154 159 214 167 166 256 264 192 180 168 181 176 167 160 159 154 153 149 159 168 172 174 174 179 184 181 176 178 174 169 174 179 182 176 176 186 188 183 183 198 201 188 179 194 192 181 198